Wind_Speed
9 8 8 10 10 11 10 8 7 5 3 2 2 3 4 6 6 7 7 7 7 7 6 6 7 7 8 8 8 9 12 11
8 4 3 4 6 6 7 7 6 4 2 1 2 3 5 7 9 9 10 10 10 9 9 9 10 10 11 12 12 13 15 14
7 2 2 3 5 5 7 7 5 4 3 0 1 2 6 7 11 11 12 11 11 11 11 12 12 13 14 15 16 17 18 19
12 4 8 8 8 8 7 6 6 4 3 3 4 2 3 2 5 6 9 11 8 12 12 11 14 16 16 17 19 20 21 21
36 14 16 13 12 11 9 6 7 5 4 2 3 1 3 2 2 3 7 7 2 2 0 3 5 12 15 16 16 17 20 22
22 13 15 14 13 13 7 6 5 5 3 1 3 4 5 2 1 2 5 9 9 8 6 4 2 3 4 6 8 12 16 19
11 11 11 15 13 10 10 9 5 4 6 8 3 3 5 2 3 2 5 7 8 9 9 9 8 7 9 10 10 9 11 12
11 8 6 7 8 9 10 12 12 11 12 14 9 11 6 7 9 14 9 7 7 7 9 10 9 11 14 13 14 14 12 10
13 13 13 14 18 19 16 17 13 16 16 18 15 13 13 12 13 14 12 11 10 10 10 11 10 10 12 14 15 17 16 14
16 16 16 18 19 17 15 15 14 16 17 18 15 14 15 12 12 12 12 12 14 15 16 16 15 15 16 12 12 16 18 18
15 14 15 15 14 15 15 13 14 14 13 14 15 15 15 13 12 11 12 13 13 16 18 19 19 18 21 21 15 16 15 15
16 15 15 16 15 15 13 12 10 11 12 13 14 15 15 14 13 14 14 15 15 16 18 19 16 23 23 19 21 15 11 5
14 14 13 13 13 12 10 9 10 9 10 12 13 13 15 16 14 14 14 15 16 17 19 20 19 25 16 21 14 6 5 9
13 12 10 8 9 7 5 9 7 6 10 11 12 14 16 17 16 16 16 17 17 18 19 20 16 21 13 9 4 7 9 20
14 11 10 9 9 9 11 8 5 6 10 12 13 15 17 17 16 16 18 18 17 16 16 15 16 19 17 5 3 3 15 8
16 15 12 9 9 11 8 5 3 7 9 11 13 13 14 16 17 16 17 19 19 18 16 15 17 20 18 5 15 13 3 5
19 16 12 11 8 9 8 7 6 7 9 12 14 15 14 14 15 15 18 19 19 18 19 19 18 18 16 18 18 15 16 5
21 16 13 8 5 6 6 6 5 6 11 13 15 20 21 16 12 16 20 20 20 19 19 20 22 21 20 20 17 9 11 8
17 16 12 5 6 6 5 5 7 9 12 15 19 21 21 15 15 24 24 24 23 22 22 22 23 24 25 25 23 23 25 20
11 14 9 6 6 6 5 7 10 13 15 17 20 20 18 16 17 20 22 23 24 26 28 26 28 29 30 30 31 31 30 27
Wind_Direction
116 119 132 148 153 150 146 141 141 146 158 172 175 238 254 258 260 262 262 262 263 267 272 276 281 282 282 278 270 269 266 260
54 73 131 132 134 128 122 122 123 111 83 19 325 306 299 295 291 284 280 279 278 277 278 280 280 281 282 283 281 274 272 274
91 303 230 175 144 132 131 129 128 132 136 217 294 317 303 306 298 296 291 284 284 285 285 285 286 284 282 283 284 280 278 282
5 281 232 193 157 150 156 150 133 109 71 30 320 264 51 288 277 301 264 265 269 268 267 283 290 288 285 282 282 282 281 278
208 211 235 220 170 173 158 171 173 161 155 123 51 13 63 2 359 44 38 54 221 28 336 267 277 286 288 289 293 291 286 280
173 179 173 192 177 165 176 152 151 172 162 117 315 342 348 333 196 34 5 3 356 359 2 355 22 31 313 326 297 303 306 292
154 171 154 144 151 114 97 110 110 78 114 105 109 54 29 35 27 85 351 339 336 313 313 324 327 327 311 312 318 310 323 308
118 121 126 110 108 93 81 77 81 77 72 69 69 89 60 35 22 34 33 12 356 334 324 326 324 301 295 298 303 294 297 308
101 98 95 98 97 95 99 97 73 66 62 70 70 74 76 49 30 31 30 19 8 3 354 342 330 320 308 302 298 292 291 285
102 100 100 96 95 101 100 85 73 73 73 72 69 64 57 41 30 24 19 6 3 2 358 353 349 340 328 325 320 309 300 290
104 101 98 100 107 107 95 85 88 86 70 64 52 44 37 30 23 14 6 2 6 7 5 1 351 345 332 321 319 316 310 303
106 106 110 113 117 117 112 106 94 88 65 49 37 31 26 20 13 5 2 360 4 3 3 3 4 352 338 329 319 307 300 341
114 122 128 137 137 128 116 101 106 87 48 32 26 25 20 15 12 7 5 9 9 4 0 358 360 2 357 339 334 339 58 46
136 135 146 161 161 146 127 130 112 65 23 17 18 19 13 5 3 4 5 5 5 3 2 352 343 360 352 339 342 337 328 334
156 147 145 147 157 147 134 127 94 13 17 19 20 13 8 3 358 356 358 360 359 354 348 350 343 344 354 316 340 324 336 308
156 154 149 146 147 143 142 126 67 30 15 10 3 356 356 355 349 347 350 350 349 347 343 339 336 334 341 310 320 309 310 316
162 159 152 149 151 142 132 113 82 41 18 6 359 349 335 334 336 336 338 338 338 334 332 329 327 322 321 318 318 314 299 265
169 165 147 143 158 151 141 116 68 25 6 354 351 346 339 317 324 334 334 333 331 328 324 317 315 311 308 305 301 296 293 297
171 163 153 158 143 122 97 59 27 9 358 355 350 352 348 337 336 338 338 336 331 327 324 320 314 302 302 298 294 291 293 288
166 168 175 153 96 99 59 30 36 37 30 29 25 21 18 355 348 342 333 331 328 324 315 311 313 306 301 297 295 292 292 288
Height
830 832 832 831 832 830 830 832 832 834 837 837 835 838 839 840 839 838 837 836 836 836 836 835 836 836 836 837 837 838 838 838
834 836 837 837 836 835 833 832 833 835 837 838 839 839 840 840 841 839 838 837 836 835 835 835 835 834 834 835 836 836 836 836
832 838 839 838 837 837 834 832 833 833 835 838 837 837 838 839 841 840 838 837 836 836 834 834 834 833 833 833 834 834 835 835
831 837 839 837 836 834 833 832 831 833 835 837 839 836 835 837 838 838 836 834 834 833 832 831 831 831 831 830 832 832 832 832
813 831 838 835 831 832 832 831 830 831 834 836 839 839 836 837 838 837 836 833 833 831 828 828 827 828 828 828 829 830 828 828
821 832 829 827 827 827 829 831 832 832 832 833 837 838 836 839 836 834 834 835 834 832 829 826 823 822 825 826 824 826 825 825
827 832 829 828 828 830 832 832 835 839 836 829 833 835 839 842 840 832 829 832 832 832 829 825 822 820 823 825 823 823 823 822
832 832 833 832 832 830 833 838 840 843 837 833 840 830 843 847 846 834 833 834 834 833 830 825 822 821 822 821 821 822 820 817
833 835 835 836 834 832 840 837 845 844 845 839 844 844 840 843 845 840 838 836 835 833 829 826 825 822 820 817 816 817 815 814
835 836 838 837 836 841 843 844 847 846 847 847 848 847 843 844 844 842 839 838 834 831 829 826 824 822 818 814 811 812 811 810
838 838 838 839 842 844 846 847 849 851 851 851 849 847 846 846 844 842 839 836 833 831 830 828 825 821 818 814 808 808 807 805
840 843 844 845 847 849 850 851 852 853 852 852 850 849 848 847 844 842 838 836 833 831 829 827 825 822 817 812 807 804 803 803
846 848 850 850 850 850 851 852 853 854 853 852 851 851 849 847 845 843 840 837 835 832 829 826 824 822 816 809 804 804 802 801
848 848 850 851 851 851 852 853 855 855 854 854 852 852 850 848 846 844 842 838 835 833 832 829 827 825 822 816 812 806 803 799
847 848 849 851 852 852 853 855 856 857 856 855 854 853 851 849 848 846 843 840 838 836 834 833 829 827 826 825 821 817 812 803
845 848 848 851 853 853 855 857 858 858 858 857 856 855 852 850 849 846 844 842 839 837 835 833 831 827 825 825 825 823 817 808
846 848 849 852 854 854 855 857 858 859 858 858 856 854 852 850 848 846 845 842 839 837 834 832 830 827 825 823 821 820 817 815
846 849 852 854 855 855 855 856 858 858 858 856 855 853 851 849 848 846 843 841 838 835 833 830 828 826 824 822 820 819 815 812
849 852 853 854 855 856 858 859 859 858 858 856 853 850 848 847 846 844 842 839 836 834 831 828 825 823 820 818 816 814 812 809
851 853 853 856 858 858 860 860 859 858 857 855 853 851 849 847 845 842 840 837 834 831 828 825 822 819 816 814 811 808 806 804